DLH22Z DAAG-EGLL

Flight info

Callsign DLH22Z
Flight time 2h 27m
Altitude 38000
Route PECES DCT MAMOM DCT ELTAN DCT MHN DCT MEROS DCT LAPIT DCT CHELY DCT LUMAS DCT SOFFY UM976 MOPEM DCT CACHI DCT AVLON UM976 ABNUR UT10 ALESO
Aircraft A20N/M-SDE2E3FGHIRWXY/LB1

Departure

Time 2026-04-30 18:15
Airport Houari Boumediene Airport (DAAG)

Arrival

Time 2026-04-30 20:42
Airport London Heathrow Airport (EGLL)
Time Latitude Longitude Altitude Speed Heading
2026-04-30 18:13 36.69382 3.21805 70 ft 38 kts 90°
2026-04-30 18:14 36.69581 3.22340 73 ft 66 kts 52°
2026-04-30 18:15 36.71493 3.25503 1139 ft 157 kts 51°
2026-04-30 18:15 36.73617 3.28302 2824 ft 181 kts 30°
2026-04-30 18:16 36.76211 3.29267 3998 ft 214 kts 16°
2026-04-30 18:16 36.79371 3.30544 5069 ft 262 kts 19°
2026-04-30 18:17 36.81173 3.31285 5720 ft 279 kts 18°
2026-04-30 18:17 36.83019 3.32006 6632 ft 284 kts 17°
2026-04-30 18:17 36.86853 3.33451 8461 ft 291 kts 15°
2026-04-30 18:18 36.88814 3.34184 9367 ft 296 kts 15°
2026-04-30 18:18 36.90803 3.34926 10243 ft 301 kts 14°
2026-04-30 18:18 36.92847 3.35687 10694 ft 322 kts 15°
2026-04-30 18:18 36.95077 3.36517 10996 ft 345 kts 15°
2026-04-30 18:19 36.97423 3.37394 11649 ft 355 kts 15°
2026-04-30 18:19 36.99804 3.38288 12511 ft 358 kts 15°
2026-04-30 18:19 37.02214 3.39193 13336 ft 363 kts 15°
2026-04-30 18:19 37.04617 3.40094 14127 ft 367 kts 15°
2026-04-30 18:20 37.07085 3.41020 14858 ft 372 kts 15°
2026-04-30 18:20 37.09590 3.41960 15584 ft 377 kts 15°
2026-04-30 18:20 37.12122 3.42911 16303 ft 381 kts 15°
2026-04-30 18:20 37.14685 3.43874 17019 ft 386 kts 15°
2026-04-30 18:21 37.17236 3.44834 17727 ft 390 kts 15°
2026-04-30 18:21 37.19850 3.45817 18421 ft 394 kts 15°
2026-04-30 18:21 37.22500 3.46815 19039 ft 398 kts 15°
2026-04-30 18:21 37.25166 3.47820 19664 ft 401 kts 15°
2026-04-30 18:22 37.27822 3.48823 20272 ft 405 kts 15°
2026-04-30 18:22 37.33290 3.50888 21479 ft 413 kts 14°
2026-04-30 18:22 37.36024 3.51922 22054 ft 417 kts 14°
2026-04-30 18:23 37.38820 3.52980 22631 ft 421 kts 14°
2026-04-30 18:23 37.41646 3.54050 23198 ft 425 kts 14°
2026-04-30 18:23 37.44494 3.55129 23742 ft 429 kts 14°
2026-04-30 18:23 37.47363 3.56213 24248 ft 431 kts 14°
2026-04-30 18:24 37.53148 3.58413 25205 ft 437 kts 14°
2026-04-30 18:24 37.56068 3.59523 25686 ft 440 kts 14°
2026-04-30 18:24 37.58966 3.60627 26144 ft 443 kts 13°
2026-04-30 18:25 37.61929 3.61755 26593 ft 446 kts 13°
2026-04-30 18:25 37.67907 3.64036 27474 ft 451 kts 13°
2026-04-30 18:25 37.70923 3.65188 27888 ft 454 kts 13°
2026-04-30 18:26 37.77010 3.67516 28696 ft 459 kts 13°
2026-04-30 18:26 37.80042 3.68677 29067 ft 462 kts 13°
2026-04-30 18:26 37.83125 3.69859 29433 ft 465 kts 13°
2026-04-30 18:27 37.89348 3.72246 30156 ft 470 kts 13°
2026-04-30 18:27 37.92493 3.73454 30467 ft 472 kts 13°
2026-04-30 18:28 37.98813 3.75886 31062 ft 477 kts 13°
2026-04-30 18:28 38.02001 3.77115 31427 ft 478 kts 13°
2026-04-30 18:28 38.08334 3.79560 32224 ft 478 kts 13°
2026-04-30 18:29 38.11512 3.80788 32626 ft 477 kts 13°
2026-04-30 18:29 38.21055 3.84481 33792 ft 476 kts 13°
2026-04-30 18:30 38.27346 3.86921 34450 ft 475 kts 13°
2026-04-30 18:30 38.33660 3.89375 35087 ft 473 kts 13°
2026-04-30 18:31 38.36824 3.90606 35391 ft 472 kts 13°
2026-04-30 18:31 38.43059 3.93036 35980 ft 470 kts 13°
2026-04-30 18:32 38.49354 3.95229 36529 ft 464 kts
2026-04-30 18:32 38.52544 3.95829 36781 ft 463 kts
2026-04-30 18:32 38.58876 3.97026 37291 ft 462 kts
2026-04-30 18:33 38.62054 3.97633 37536 ft 461 kts
2026-04-30 18:33 38.68368 3.98838 38003 ft 460 kts
2026-04-30 18:33 38.71540 3.99443 38057 ft 459 kts
2026-04-30 18:34 38.81011 4.01250 38057 ft 458 kts
2026-04-30 18:35 38.87292 4.02451 38056 ft 458 kts
2026-04-30 18:35 38.93605 4.03661 38062 ft 458 kts
2026-04-30 18:36 39.03030 4.05471 38062 ft 457 kts
2026-04-30 18:37 39.12453 4.07286 38056 ft 457 kts
2026-04-30 18:37 39.18758 4.08504 38058 ft 457 kts
2026-04-30 18:38 39.25016 4.09712 38068 ft 456 kts
2026-04-30 18:38 39.31277 4.10918 38074 ft 456 kts
2026-04-30 18:39 39.37566 4.12131 38067 ft 456 kts
2026-04-30 18:39 39.43841 4.13345 38069 ft 455 kts
2026-04-30 18:40 39.50083 4.14554 38068 ft 455 kts
2026-04-30 18:40 39.56356 4.15772 38074 ft 454 kts
2026-04-30 18:41 39.62581 4.16982 38076 ft 453 kts
2026-04-30 18:41 39.68789 4.18192 38074 ft 453 kts
2026-04-30 18:42 39.75036 4.19412 38075 ft 452 kts
2026-04-30 18:42 39.84384 4.21242 38075 ft 452 kts
2026-04-30 18:45 40.18384 4.29155 38070 ft 451 kts
2026-04-30 18:46 40.24536 4.30609 38068 ft 451 kts
2026-04-30 18:46 40.30719 4.32073 38067 ft 451 kts
2026-04-30 18:47 40.36908 4.33541 38069 ft 451 kts
2026-04-30 18:47 40.43057 4.35003 38074 ft 451 kts
2026-04-30 18:48 40.49231 4.36473 38077 ft 451 kts
2026-04-30 18:48 40.55413 4.37947 38080 ft 451 kts
2026-04-30 18:49 40.61550 4.39415 38082 ft 450 kts
2026-04-30 18:49 40.67724 4.40893 38085 ft 450 kts
2026-04-30 18:50 40.73869 4.42368 38085 ft 450 kts
2026-04-30 18:50 40.80051 4.43854 38086 ft 450 kts
2026-04-30 18:51 40.86190 4.45332 38088 ft 450 kts
2026-04-30 18:51 40.92363 4.46822 38089 ft 450 kts
2026-04-30 18:52 40.98483 4.48301 38094 ft 449 kts
2026-04-30 18:52 41.04646 4.49793 38101 ft 449 kts
2026-04-30 18:53 41.10767 4.51279 38100 ft 449 kts
2026-04-30 18:53 41.16913 4.52777 38101 ft 448 kts
2026-04-30 18:54 41.23051 4.54277 38109 ft 447 kts
2026-04-30 18:54 41.29154 4.55770 38104 ft 447 kts
2026-04-30 18:55 41.35281 4.57272 38098 ft 446 kts
2026-04-30 18:55 41.44430 4.59521 38100 ft 446 kts
2026-04-30 18:56 41.53570 4.61773 38113 ft 445 kts
2026-04-30 18:57 41.62680 4.64024 38108 ft 445 kts
2026-04-30 18:57 41.68776 4.65535 38110 ft 444 kts
2026-04-30 18:58 41.77803 4.68431 38113 ft 449 kts 10°
2026-04-30 18:59 41.86829 4.71957 38114 ft 449 kts
2026-04-30 19:00 41.98790 4.76655 38121 ft 449 kts 10°
2026-04-30 19:01 42.10766 4.81384 38133 ft 449 kts
2026-04-30 19:02 42.19740 4.84940 38140 ft 448 kts
2026-04-30 19:03 42.31706 4.89697 38149 ft 448 kts 10°
2026-04-30 19:04 42.43637 4.94460 38147 ft 447 kts 10°
2026-04-30 19:05 42.55548 4.99234 38146 ft 446 kts 10°
2026-04-30 19:06 42.67446 5.04021 38144 ft 446 kts 10°
2026-04-30 19:06 42.76355 5.07618 38148 ft 446 kts 10°
2026-04-30 19:07 42.85254 5.11220 38148 ft 446 kts 10°
2026-04-30 19:08 42.97145 5.16018 38148 ft 444 kts
2026-04-30 19:09 43.06196 5.16962 38150 ft 429 kts 348°
2026-04-30 19:09 43.12042 5.15710 38154 ft 426 kts 345°
2026-04-30 19:10 43.23772 5.13018 38162 ft 428 kts 345°
2026-04-30 19:11 43.32581 5.10970 38174 ft 429 kts 345°
2026-04-30 19:12 43.38489 5.09592 38184 ft 430 kts 345°
2026-04-30 19:12 43.44377 5.08216 38187 ft 431 kts 345°
2026-04-30 19:13 43.56211 5.05443 38192 ft 432 kts 346°
2026-04-30 19:14 43.62166 5.04043 38192 ft 433 kts 346°
2026-04-30 19:14 43.68087 5.02649 38195 ft 433 kts 346°
2026-04-30 19:15 43.73033 5.01482 38185 ft 433 kts 346°
2026-04-30 19:15 43.81892 4.99387 38207 ft 431 kts 346°
2026-04-30 19:16 43.87830 4.97979 38211 ft 432 kts 346°
2026-04-30 19:17 43.96719 4.95866 38211 ft 432 kts 346°
2026-04-30 19:17 44.05584 4.93752 38209 ft 432 kts 346°
2026-04-30 19:18 44.14454 4.91630 38205 ft 433 kts 346°
2026-04-30 19:19 44.20409 4.90202 38206 ft 433 kts 346°
2026-04-30 19:19 44.29309 4.88063 38202 ft 434 kts 347°
2026-04-30 19:20 44.35280 4.86624 38202 ft 435 kts 347°
2026-04-30 19:21 44.44232 4.84461 38198 ft 436 kts 347°
2026-04-30 19:22 44.56221 4.81553 38204 ft 438 kts 347°
2026-04-30 19:23 44.74282 4.77150 38196 ft 441 kts 347°
2026-04-30 19:24 44.83353 4.74928 38194 ft 442 kts 348°
2026-04-30 19:25 44.98531 4.71195 38197 ft 444 kts 348°
2026-04-30 19:26 45.10694 4.68189 38196 ft 444 kts 348°
2026-04-30 19:27 45.19824 4.65923 38197 ft 444 kts 348°
2026-04-30 19:28 45.28939 4.63654 38185 ft 444 kts 348°
2026-04-30 19:29 45.41120 4.60610 38171 ft 445 kts 348°
2026-04-30 19:30 45.53312 4.57551 38164 ft 445 kts 348°
2026-04-30 19:31 45.65258 4.54540 38160 ft 445 kts 348°
2026-04-30 19:31 45.74390 4.52230 38161 ft 445 kts 349°
2026-04-30 19:32 45.80457 4.50696 38161 ft 445 kts 349°
2026-04-30 19:32 45.86555 4.49145 38159 ft 445 kts 349°
2026-04-30 19:33 45.92663 4.47584 38155 ft 445 kts 349°
2026-04-30 19:33 45.98727 4.46033 38152 ft 445 kts 349°
2026-04-30 19:34 46.04819 4.44473 38153 ft 445 kts 349°
2026-04-30 19:35 46.13938 4.42133 38141 ft 445 kts 349°
2026-04-30 19:35 46.19989 4.40576 38151 ft 445 kts 349°
2026-04-30 19:36 46.26078 4.39006 38145 ft 445 kts 349°
2026-04-30 19:36 46.35080 4.36043 38133 ft 445 kts 346°
2026-04-30 19:37 46.41099 4.33954 38122 ft 445 kts 346°
2026-04-30 19:37 46.47074 4.31864 38139 ft 445 kts 346°
2026-04-30 19:38 46.53100 4.29741 38145 ft 446 kts 346°
2026-04-30 19:38 46.59076 4.27632 38134 ft 446 kts 346°
2026-04-30 19:39 46.65073 4.25512 38138 ft 447 kts 346°
2026-04-30 19:39 46.71117 4.23370 38138 ft 447 kts 346°
2026-04-30 19:40 46.76915 4.21310 38147 ft 448 kts 346°
2026-04-30 19:40 46.82922 4.19172 38146 ft 448 kts 346°
2026-04-30 19:41 46.88982 4.17009 38140 ft 449 kts 346°
2026-04-30 19:41 46.94999 4.14857 38157 ft 450 kts 346°
2026-04-30 19:42 47.01091 4.12672 38158 ft 450 kts 346°
2026-04-30 19:42 47.07100 4.10325 38155 ft 451 kts 341°
2026-04-30 19:43 47.12929 4.06940 38159 ft 450 kts 338°
2026-04-30 19:44 47.21591 4.01852 38156 ft 451 kts 338°
2026-04-30 19:44 47.27394 3.98418 38153 ft 451 kts 338°
2026-04-30 19:45 47.33192 3.94972 38151 ft 451 kts 338°
2026-04-30 19:45 47.39009 3.91507 38151 ft 451 kts 338°
2026-04-30 19:46 47.44787 3.88057 38151 ft 450 kts 338°
2026-04-30 19:46 47.50607 3.84573 38156 ft 452 kts 338°
2026-04-30 19:47 47.56394 3.81062 38141 ft 452 kts 335°
2026-04-30 19:47 47.62050 3.77039 38138 ft 452 kts 335°
2026-04-30 19:48 47.67694 3.73046 38136 ft 452 kts 335°
2026-04-30 19:48 47.73351 3.69035 38146 ft 452 kts 335°
2026-04-30 19:49 47.79027 3.64995 38148 ft 452 kts 334°
2026-04-30 19:49 47.87550 3.58901 38156 ft 452 kts 335°
2026-04-30 19:50 47.93185 3.54865 38155 ft 453 kts 335°
2026-04-30 19:50 47.98868 3.50782 38150 ft 453 kts 335°
2026-04-30 19:51 48.04551 3.46689 38156 ft 453 kts 334°
2026-04-30 19:51 48.10199 3.42611 38153 ft 453 kts 334°
2026-04-30 19:52 48.15873 3.38503 38151 ft 453 kts 334°
2026-04-30 19:52 48.21525 3.34403 38160 ft 454 kts 334°
2026-04-30 19:53 48.27224 3.30257 38151 ft 454 kts 334°
2026-04-30 19:53 48.32916 3.26106 38154 ft 454 kts 334°
2026-04-30 19:54 48.38567 3.21974 38160 ft 455 kts 335°
2026-04-30 19:54 48.43999 3.17993 38171 ft 457 kts 335°
2026-04-30 19:55 48.49722 3.13789 38171 ft 455 kts 335°
2026-04-30 19:55 48.55397 3.09610 38169 ft 456 kts 335°
2026-04-30 19:56 48.61103 3.05397 38167 ft 456 kts 335°
2026-04-30 19:56 48.66804 3.01177 38169 ft 456 kts 334°
2026-04-30 19:57 48.72475 2.96984 38161 ft 455 kts 336°
2026-04-30 19:57 48.78183 2.92782 38172 ft 455 kts 334°
2026-04-30 19:58 48.83869 2.88496 38173 ft 456 kts 334°
2026-04-30 19:58 48.89517 2.84258 38185 ft 455 kts 334°
2026-04-30 19:59 48.95200 2.79997 38180 ft 455 kts 334°
2026-04-30 20:00 49.03680 2.73620 38186 ft 454 kts 334°
2026-04-30 20:00 49.09357 2.69338 38185 ft 454 kts 334°
2026-04-30 20:01 49.17862 2.62901 38183 ft 454 kts 334°
2026-04-30 20:01 49.23496 2.58623 38182 ft 454 kts 334°
2026-04-30 20:02 49.32007 2.52140 38186 ft 455 kts 334°
2026-04-30 20:03 49.40479 2.45662 38187 ft 455 kts 334°
2026-04-30 20:03 49.46155 2.41307 38184 ft 455 kts 334°
2026-04-30 20:04 49.51796 2.36969 38188 ft 455 kts 334°
2026-04-30 20:05 49.60300 2.30407 38191 ft 456 kts 334°
2026-04-30 20:05 49.68777 2.23839 38197 ft 456 kts 334°
2026-04-30 20:06 49.74457 2.19425 38195 ft 456 kts 334°
2026-04-30 20:06 49.80140 2.14995 38196 ft 456 kts 334°
2026-04-30 20:07 49.85778 2.10590 38197 ft 456 kts 334°
2026-04-30 20:08 49.94294 2.03914 38196 ft 456 kts 334°
2026-04-30 20:08 49.99922 1.99487 38192 ft 456 kts 334°
2026-04-30 20:09 50.05594 1.95014 38195 ft 456 kts 334°
2026-04-30 20:09 50.14045 1.88177 38193 ft 456 kts 329°
2026-04-30 20:10 50.21503 1.79049 38193 ft 456 kts 314°
2026-04-30 20:11 50.28268 1.68573 38197 ft 456 kts 315°
2026-04-30 20:11 50.31001 1.64336 38194 ft 456 kts 315°
2026-04-30 20:12 50.37748 1.53800 37726 ft 455 kts 315°
2026-04-30 20:12 50.39234 1.51470 37219 ft 458 kts 315°
2026-04-30 20:13 50.42246 1.46743 35950 ft 466 kts 314°
2026-04-30 20:13 50.43777 1.44336 35230 ft 472 kts 314°
2026-04-30 20:13 50.46127 1.40636 34086 ft 482 kts 314°
2026-04-30 20:13 50.49299 1.35633 32634 ft 489 kts 314°
2026-04-30 20:14 50.51706 1.31830 31627 ft 491 kts 314°
2026-04-30 20:14 50.54121 1.28011 30644 ft 493 kts 314°
2026-04-30 20:14 50.55754 1.25422 29905 ft 495 kts 314°
2026-04-30 20:14 50.58138 1.21640 28937 ft 488 kts 314°
2026-04-30 20:15 50.60500 1.17910 28318 ft 471 kts 315°
2026-04-30 20:15 50.62777 1.14322 27927 ft 453 kts 315°
2026-04-30 20:15 50.64976 1.10854 27319 ft 442 kts 315°
2026-04-30 20:15 50.67032 1.07418 26800 ft 430 kts 307°
2026-04-30 20:16 50.68699 1.03426 26509 ft 443 kts 301°
2026-04-30 20:16 50.70365 0.99251 26278 ft 453 kts 301°
2026-04-30 20:16 50.72052 0.95038 26027 ft 452 kts 301°
2026-04-30 20:16 50.73721 0.90869 25782 ft 447 kts 301°
2026-04-30 20:17 50.75374 0.86728 25539 ft 446 kts 301°
2026-04-30 20:17 50.77008 0.82623 25299 ft 445 kts 301°
2026-04-30 20:17 50.78656 0.78475 25058 ft 444 kts 301°
2026-04-30 20:17 50.80294 0.74342 24821 ft 443 kts 301°
2026-04-30 20:18 50.81927 0.70215 24576 ft 441 kts 301°
2026-04-30 20:18 50.83553 0.66097 24350 ft 440 kts 301°
2026-04-30 20:18 50.85179 0.61976 24058 ft 440 kts 301°
2026-04-30 20:18 50.86784 0.57899 23404 ft 442 kts 300°
2026-04-30 20:19 50.88409 0.53767 22820 ft 438 kts 300°
2026-04-30 20:19 50.90007 0.49697 22202 ft 433 kts 300°
2026-04-30 20:19 50.91549 0.45763 21606 ft 429 kts 300°
2026-04-30 20:21 50.91838 0.45026 21497 ft 428 kts 300°
2026-04-30 20:21 50.93402 0.41029 20896 ft 424 kts 300°
2026-04-30 20:21 50.94952 0.37061 20278 ft 420 kts 300°
2026-04-30 20:21 50.96491 0.33114 19672 ft 417 kts 300°
2026-04-30 20:22 50.97995 0.29251 19047 ft 415 kts 300°
2026-04-30 20:22 50.99504 0.25370 18438 ft 412 kts 300°
2026-04-30 20:22 51.01001 0.21515 17845 ft 407 kts 300°
2026-04-30 20:22 51.02478 0.17706 17261 ft 402 kts 300°
2026-04-30 20:23 51.03935 0.13943 16693 ft 397 kts 300°
2026-04-30 20:23 51.05359 0.10257 16144 ft 394 kts 300°
2026-04-30 20:23 51.06785 0.06564 15581 ft 390 kts 300°
2026-04-30 20:23 51.08200 0.02893 15027 ft 387 kts 300°
2026-04-30 20:24 51.09603 -0.00754 14448 ft 385 kts 300°
2026-04-30 20:24 51.10998 -0.04385 13836 ft 384 kts 300°
2026-04-30 20:24 51.12364 -0.07944 13317 ft 379 kts 300°
2026-04-30 20:24 51.13748 -0.11551 12737 ft 375 kts 300°
2026-04-30 20:25 51.16433 -0.18573 11541 ft 372 kts 300°
2026-04-30 20:25 51.17771 -0.22079 11001 ft 368 kts 300°
2026-04-30 20:26 51.20378 -0.28917 10432 ft 346 kts 300°
2026-04-30 20:26 51.22761 -0.35181 10172 ft 318 kts 300°
2026-04-30 20:26 51.23889 -0.38153 10032 ft 306 kts 299°
2026-04-30 20:27 51.26052 -0.43871 9276 ft 299 kts 299°
2026-04-30 20:27 51.28190 -0.49535 8503 ft 295 kts 299°
2026-04-30 20:28 51.30294 -0.55119 7729 ft 291 kts 299°
2026-04-30 20:28 51.32354 -0.60593 7086 ft 284 kts 299°
2026-04-30 20:29 51.34409 -0.66067 6999 ft 287 kts 299°
2026-04-30 20:30 51.37499 -0.74297 6999 ft 287 kts 301°
2026-04-30 20:30 51.39850 -0.82495 6996 ft 258 kts 271°
2026-04-30 20:31 51.40177 -0.90674 6213 ft 249 kts 270°
2026-04-30 20:32 51.40915 -0.99082 5040 ft 258 kts 300°
2026-04-30 20:32 51.43748 -1.01794 5001 ft 232 kts 358°
2026-04-30 20:33 51.45307 -1.01728 4988 ft 216 kts 17°
2026-04-30 20:33 51.47346 -0.98639 5173 ft 202 kts 77°
2026-04-30 20:33 51.47565 -0.96493 5009 ft 192 kts 92°
2026-04-30 20:34 51.47590 -0.92285 4816 ft 180 kts 95°
2026-04-30 20:34 51.47603 -0.88281 4654 ft 178 kts 95°
2026-04-30 20:35 51.47610 -0.86317 4539 ft 178 kts 95°
2026-04-30 20:35 51.47618 -0.84343 4349 ft 175 kts 95°
2026-04-30 20:35 51.47636 -0.80772 3982 ft 146 kts 97°
2026-04-30 20:36 51.47642 -0.79215 3805 ft 134 kts 98°
2026-04-30 20:36 51.47643 -0.77705 3657 ft 135 kts 97°
2026-04-30 20:36 51.47654 -0.74734 3307 ft 131 kts 98°
2026-04-30 20:37 51.47659 -0.73299 3140 ft 130 kts 98°
2026-04-30 20:37 51.47664 -0.71846 2964 ft 130 kts 98°
2026-04-30 20:37 51.47671 -0.70401 2789 ft 128 kts 98°
2026-04-30 20:37 51.47675 -0.68973 2620 ft 127 kts 98°
2026-04-30 20:38 51.47680 -0.67574 2453 ft 127 kts 97°
2026-04-30 20:38 51.47686 -0.66169 2284 ft 125 kts 98°
2026-04-30 20:38 51.47688 -0.64773 2120 ft 125 kts 98°
2026-04-30 20:39 51.47680 -0.62016 1871 ft 122 kts 96°
2026-04-30 20:39 51.47694 -0.60647 1754 ft 125 kts 96°
2026-04-30 20:39 51.47711 -0.59216 1590 ft 128 kts 94°
2026-04-30 20:40 51.47713 -0.56401 1137 ft 126 kts 91°
2026-04-30 20:40 51.47723 -0.54956 956 ft 134 kts 91°
2026-04-30 20:40 51.47720 -0.53482 758 ft 130 kts 89°
2026-04-30 20:41 51.47743 -0.50555 402 ft 131 kts 90°
2026-04-30 20:41 51.47746 -0.49117 234 ft 132 kts 87°
2026-04-30 20:41 51.47751 -0.47650 99 ft 125 kts 89°
2026-04-30 20:41 51.47758 -0.46457 90 ft 80 kts 89°
2026-04-30 20:42 51.47761 -0.45865 84 ft 38 kts 89°
2026-04-30 20:42 51.47741 -0.45513 87 ft 25 kts 126°
2026-04-30 20:42 51.47624 -0.45473 87 ft 0 kts 179°
2026-04-30 20:43 51.47622 -0.45472 89 ft 2 kts 179°
2026-04-30 20:44 51.47549 -0.45471 86 ft 0 kts 179°
2026-04-30 20:44 51.47525 -0.45467 86 ft 13 kts 165°
2026-04-30 20:45 51.47508 -0.44912 88 ft 33 kts 89°
2026-04-30 20:45 51.47511 -0.44660 89 ft 9 kts 90°
2026-04-30 20:45 51.47477 -0.44572 90 ft 11 kts 159°
2026-04-30 20:46 51.47144 -0.44559 87 ft 21 kts 179°
2026-04-30 20:46 51.47016 -0.44559 87 ft 16 kts 180°
2026-04-30 20:47 51.46956 -0.44645 86 ft 9 kts 275°
2026-04-30 20:47 51.46953 -0.44718 87 ft 2 kts 265°
2026-04-30 20:48 51.46952 -0.44729 87 ft 3 kts 264°
2026-04-30 20:48 51.46952 -0.44733 86 ft 0 kts 265°
2026-04-30 20:48 51.46952 -0.44742 87 ft 2 kts 265°
2026-04-30 20:48 51.46952 -0.44735 87 ft 0 kts 265°
2026-04-30 20:49 51.46952 -0.44736 87 ft 0 kts 265°